Weather History for Dayton, OH

Change the Weather History Date:

Monday, March 11, 2013

  Actual Average Record
Temperature  
Mean Temperature 46 °F 38 °F  
Max Temperature 56 °F 48 °F 76 °F (1990)
Min Temperature 36 °F 30 °F 5 °F (1948)
Degree Days  
Heating Degree Days 19 27  
Month to date heating degree days 326 312  
Since 1 July heating degree days 4376 4587  
Cooling Degree Days 0 0  
Month to date cooling degree days 0 0  
Year to date cooling degree days 0 0  
Moisture  
Dew Point 43 °F    
Average Humidity 81    
Maximum Humidity 100    
Minimum Humidity 61    
Precipitation  
Precipitation 0.89 in 0.10 in 1.00 in (1917)
Month to date precipitation 1.66 1.03  
Year to date precipitation 6.05 5.98  
Snow  
Snow 0.00 in 0.20 in 5.50 in (1906)
Month to date snowfall 5.3 1.7  
Since 1 July snowfall 27.0 21.0  
Snow Depth 0.00 in    
Sea Level Pressure  
Sea Level Pressure 29.72 in    
Wind  
Wind Speed 18 mph (SSW)    
Max Wind Speed 38 mph    
Max Gust Speed 45 mph    
Visibility 8 miles    
Events Rain    
T = Trace of Precipitation, MM = Missing Value Source: NWS Daily Summary

Daily Weather History Graph

Daily Weather History Graph

Search for Another Location

Airport:

Trip Planner

Search our weather history database for the weather conditions in past years. The results will help you decide how hot, cold, wet, or windy it might be!

Date:

Astronomy

Mar. 11, 2013 Rise Set
Actual Time 7:54 AM EDT 7:39 PM EDT
Civil Twilight 7:27 AM EDT 8:06 PM EDT
Nautical Twilight 6:56 AM EDT 8:38 PM EDT
Astronomical Twilight 6:24 AM EDT 9:09 PM EDT
Moon 7:27 AM EDT (3/11) 7:51 PM EDT (3/11)
Length of Visible Light 12h 39m
Length of Day
11h 45m
Waning Crescent, 0% of the Moon is Illuminated
Mar 11
Waning Crescent
Mar 11
New
Mar 19
First Quarter
Mar 27
Full
Apr 3
Last Quarter

Hourly Weather History & Observations

Time (EDT) Temp. Windchill Dew Point Humidity Pressure Visibility Wind Dir Wind Speed Gust Speed Precip Events Conditions
12:56 AM 55.9 °F - 43.0 °F 62% 29.84 in 10.0 mi South 13.8 mph - 0.02 in Rain Light Rain
1:56 AM 53.6 °F - 44.6 °F 72% 29.84 in 10.0 mi South 13.8 mph - N/A Rain Light Rain
2:56 AM 51.1 °F - 46.9 °F 86% 29.81 in 5.0 mi South 15.0 mph - 0.10 in Rain Rain
3:56 AM 51.1 °F - 46.9 °F 86% 29.81 in 5.0 mi South 20.7 mph 31.1 mph 0.09 in Rain Rain
4:56 AM 51.1 °F - 48.9 °F 92% 29.76 in 9.0 mi SSE 19.6 mph 26.5 mph 0.10 in Rain Light Rain
5:56 AM 51.1 °F - 48.9 °F 92% 29.81 in 6.0 mi South 16.1 mph - 0.09 in Rain Rain
6:56 AM 48.9 °F - 48.0 °F 97% 29.81 in 6.0 mi South 15.0 mph - 0.08 in Rain Light Rain
7:56 AM 48.9 °F - 46.9 °F 93% 29.79 in 5.0 mi SSE 10.4 mph - 0.10 in Rain Rain
8:09 AM 48.2 °F - 46.4 °F 93% 29.79 in 5.0 mi SSE 13.8 mph - 0.01 in Rain Rain
8:34 AM 48.2 °F - 46.4 °F 93% 29.77 in 6.0 mi SSE 16.1 mph - 0.06 in Rain Light Rain
8:56 AM 48.9 °F - 46.9 °F 93% 29.78 in 7.0 mi SSE 16.1 mph 21.9 mph 0.07 in Rain Light Rain
9:47 AM 50.0 °F - 46.4 °F 87% 29.76 in 8.0 mi SSE 17.3 mph 23.0 mph 0.04 in Rain Light Rain
9:56 AM 50.0 °F - 46.0 °F 86% 29.74 in 10.0 mi SSE 17.3 mph - 0.04 in   Overcast
10:11 AM 50.0 °F - 44.6 °F 82% 29.74 in 10.0 mi SSE 18.4 mph - 0.00 in Rain Light Rain
10:56 AM 50.0 °F - 46.0 °F 86% 29.71 in 10.0 mi SSE 16.1 mph - 0.00 in   Overcast
11:50 AM 51.8 °F - 46.4 °F 82% 29.68 in 10.0 mi SSE 16.1 mph 25.3 mph 0.00 in Rain Light Rain
11:56 AM 51.1 °F - 46.9 °F 86% 29.68 in 10.0 mi SSE 12.7 mph 25.3 mph 0.00 in Rain Light Rain
12:19 PM 51.8 °F - 48.2 °F 88% 29.66 in 6.0 mi SSE 19.6 mph - 0.01 in Rain Light Rain
12:32 PM 51.8 °F - 48.2 °F 88% 29.65 in 4.0 mi SSE 19.6 mph 24.2 mph 0.02 in Rain Rain
12:56 PM 51.1 °F - 46.9 °F 86% 29.63 in 4.0 mi SSE 20.7 mph 28.8 mph 0.05 in Rain Light Rain
1:56 PM 53.1 °F - 48.9 °F 86% 29.60 in 10.0 mi South 24.2 mph 33.4 mph 0.01 in Rain Light Rain
2:38 PM 53.6 °F - 50.0 °F 88% 29.60 in 2.5 mi SSW 24.2 mph 34.5 mph 0.04 in Rain Rain
2:40 PM 53.6 °F - 50.0 °F 88% 29.60 in 1.8 mi SW 24.2 mph 34.5 mph 0.08 in Rain Rain
2:46 PM 53.6 °F - 50.0 °F 88% 29.62 in 3.0 mi WSW 26.5 mph 35.7 mph 0.09 in Rain Light Rain
2:51 PM 50.0 °F - 46.4 °F 87% 29.61 in 9.0 mi WSW 28.8 mph 44.9 mph 0.09 in Rain Light Rain
2:56 PM 48.9 °F - 45.0 °F 86% 29.62 in 10.0 mi WSW 25.3 mph 44.9 mph 0.09 in Rain Light Rain
2:59 PM 48.2 °F - 44.6 °F 87% 29.62 in 10.0 mi WSW 33.4 mph 41.4 mph 0.00 in Rain Light Rain
3:23 PM 46.4 °F 37.7 °F 42.8 °F 87% 29.63 in 7.0 mi WSW 26.5 mph 36.8 mph 0.01 in Rain Light Rain
3:56 PM 46.9 °F - 44.1 °F 90% 29.63 in 10.0 mi WSW 19.6 mph 27.6 mph 0.02 in   Overcast
4:34 PM 48.2 °F - 44.6 °F 87% 29.63 in 10.0 mi SW 18.4 mph 26.5 mph N/A   Overcast
4:56 PM 48.0 °F - 44.1 °F 86% 29.64 in 10.0 mi WSW 18.4 mph 25.3 mph N/A   Overcast
5:56 PM 46.9 °F - 41.0 °F 80% 29.68 in 10.0 mi West 21.9 mph 27.6 mph N/A   Overcast
6:47 PM 44.6 °F 35.9 °F 37.4 °F 76% 29.70 in 10.0 mi WSW 23.0 mph 33.4 mph N/A   Overcast
6:56 PM 44.1 °F 35.2 °F 37.0 °F 76% 29.72 in 10.0 mi West 23.0 mph 29.9 mph N/A   Overcast
7:56 PM 42.1 °F 32.8 °F 34.0 °F 73% 29.75 in 10.0 mi West 21.9 mph 27.6 mph N/A   Overcast
8:56 PM 41.0 °F 32.5 °F 34.0 °F 76% 29.79 in 10.0 mi WSW 17.3 mph - N/A   Overcast
9:24 PM 39.2 °F 29.6 °F 33.8 °F 81% 29.78 in 10.0 mi West 19.6 mph 26.5 mph N/A   Overcast
9:56 PM 39.0 °F 29.3 °F 33.1 °F 79% 29.82 in 10.0 mi WSW 19.6 mph 31.1 mph N/A   Overcast
10:19 PM 37.4 °F 28.9 °F 33.8 °F 87% 29.82 in 10.0 mi WSW 13.8 mph - N/A   Overcast
10:28 PM 37.4 °F 28.2 °F 33.8 °F 87% 29.82 in 10.0 mi WSW 16.1 mph - N/A   Overcast
10:56 PM 37.9 °F 29.2 °F 33.1 °F 83% 29.84 in 10.0 mi WSW 15.0 mph - N/A   Overcast
11:56 PM 37.0 °F 28.1 °F 32.0 °F 82% 29.85 in 10.0 mi WSW 15.0 mph - N/A   Overcast